This is the latest recevied weather packets stored in our database for station/object BMCB-29. If no packets are shown the sender has not sent any weather packets the latest 10 day(s).
| Time | Temp. | Humidity | Pressure | Rain* | Wind** | Luminosity | Snow |
|---|---|---|---|---|---|---|---|
| 1778026844 | 9.44° C | 10% | 1009.7 hPa | 1.52 mm | - | - | - |
| 1778022645 | 10° C | 10% | 1010 hPa | 1.78 mm | - | - | - |
| 1778019048 | 10° C | 10% | 1010.2 hPa | 1.52 mm | - | - | - |
| 1778016048 | 10° C | 10% | 1010.4 hPa | 0.76 mm | - | - | - |
| 1778010646 | 10.56° C | 10% | 1010.3 hPa | 2.29 mm | - | - | - |
| 1778009449 | 10.56° C | 10% | 1010.1 hPa | 2.29 mm | - | - | - |
| 1778008848 | 10.56° C | 10% | 1010.1 hPa | 2.29 mm | - | - | - |
| 1778008248 | 10.56° C | 10% | 1010.1 hPa | 2.29 mm | - | - | - |
| 1778005846 | 10.56° C | 10% | 1010 hPa | 1.52 mm | - | - | - |
| 1778005248 | 10.56° C | 10% | 1010 hPa | 1.52 mm | - | - | - |
| 1778002247 | 11.11° C | 10% | 1010 hPa | 1.52 mm | - | - | - |
| 1777999245 | 11.11° C | 10% | 1010.2 hPa | 0.76 mm | - | - | - |
| 1777997448 | 11.11° C | 10% | 1010.3 hPa | 0.76 mm | - | - | - |
| 1777992646 | 11.67° C | 98% | 1010.4 hPa | 0 mm | - | 46 W/m² | - |
| 1777990848 | 12.22° C | 97% | 1010.5 hPa | 0 mm | - | 60 W/m² | - |
| 1777989653 | 12.22° C | 95% | 1010.5 hPa | 0 mm | - | 74 W/m² | - |
| 1777982447 | 14.44° C | 89% | 1010.7 hPa | 0 mm | - | 296 W/m² | - |
| 1777980046 | 14.44° C | 90% | 1010.9 hPa | 0 mm | - | 586 W/m² | - |
| 1777974644 | 14.44° C | 91% | 1011.3 hPa | 0 mm | - | 196 W/m² | - |
| 1777968052 | 12.78° C | 10% | 1011.7 hPa | 0 mm | - | - | - |
| 1777963844 | 11.11° C | 10% | 1012.2 hPa | 0 mm | - | - | - |
| 1777956644 | 10.56° C | 10% | 1012.2 hPa | 0 mm | - | - | - |
| 1777947043 | 10.56° C | 10% | 1013.1 hPa | 0 mm | - | - | - |
| 1777943442 | 10° C | 10% | 1013.1 hPa | 0 mm | - | - | - |
| 1777941642 | 10° C | 10% | 1013.2 hPa | 0 mm | - | - | - |
* Rain latest hour (hover to see other rain measurements)
** Current wind speed in m/s (hover to see current wind gust speed)